Regional Weather Roundup
Issued by NWS

Home | Current Version | Previous Version | Graphics & Text | Print | Product List | Glossary On
Versions: 1 2 3 4 5 6 7 8 9 10 11 12 13 14 15 16 17 18 19 20 21 22 23 24 25 26 27 28 29 30 31 32 33 34 35 36 37 38 39 40 41 42 43 44 45 46 47 48 49 50
000
ASUS45 KTFX 200704
RWRMT
MONTANA HOURLY WEATHER ROUNDUP
NATIONAL WEATHER SERVICE GREAT FALLS MT
104 AM MDT MON OCT 20 2014

NOTE: "FAIR" INDICATES FEW OR NO CLOUDS BELOW 12000 FEET WITH NO
SIGNIFICANT WEATHER AND/OR OBSTRUCTIONS TO VISIBILITY.

* THESE STATIONS ARE NOT UNDER NWS QUALITY CONTROL. THEY DO NOT
   REPORT WEATHER SUCH AS PRECIPITATION OR FOG.

MTZ001>007-043-200800-
WEST OF THE DIVIDE
CITY           SKY/WX    TMP DP  RH WIND       PRES   REMARKS
KALISPELL      CLEAR     34  34 100 CALM      29.88S
MISSOULA       CLEAR     43  37  79 NE3       29.93S
BUTTE          CLEAR     36  27  70 CALM      30.04S
MULLAN PASS    CLEAR     50  30  46 SE7       29.94F
* ESSEX        N/A       42  37  83 E3G11      N/A
* LINCOLN      N/A       32  30  92 N/A        N/A
* POLSON       N/A       46  39  77 N/A        N/A
* RONAN APT    CLEAR     37  34  89 N/A        N/A
* SEELEY LAKE  N/A       31  29  92 NE1        N/A
* THOMP F APT  CLEAR     48  17  29 N3         N/A
$$

MTZ008-052>055-200800-
SOUTHWEST MONTANA
CITY           SKY/WX    TMP DP  RH WIND       PRES   REMARKS
BOZEMAN        CLEAR     36  30  79 SE6       30.01S WCI  31
DILLON         CLEAR     45  25  45 S9        30.03S
W YELLOWSTONE  CLEAR     25  21  85 CALM      30.17S
* THREE FORKS  CLEAR     32  32 100 N/A        N/A
* BOULDER HILL N/A       46  25  44 SW9        N/A
* MONIDA PASS  N/A       37  22  55 SE1        N/A
* RAYNOLDS PAS N/A       39  27  62 S6G11      N/A   WCI  35
* WHITEHALL    N/A       40  28  62 N8         N/A   WCI  35
* WISE RIVER   N/A       35  27  73 W4         N/A
$$

MTZ009>010-012-014-046-048-049-054-200800-
EAST SLOPES AND CENTRAL MONTANA
CITY           SKY/WX    TMP DP  RH WIND       PRES   REMARKS
CUT BANK       PTCLDY    54  28  37 SW5       29.86F
GREAT FALLS    CLEAR     55  28  35 S14       29.88F
HELENA         CLEAR     45  36  71 CALM      29.95S
MALMSTROM AFB  CLEAR     45  30  56 SE3       29.90F
* CONRAD       CLEAR     37  28  70 N/A        N/A
* DEARBORN     N/A       42  36  79 S2         N/A
* EAST GLACIER N/A       55  31  40 W18G23     N/A
* MONARCH      N/A       46  23  40 S12        N/A
* PENDROY      N/A       52  29  41 S7         N/A
* ROGERS PASS  N/A       51  30  45 NW6        N/A
* SAINT MARY   N/A       60  28  30 S6G14      N/A
* SWEET GRASS  N/A       61  28  29 SW14       N/A
$$

MTZ011-013-016-021-035-040-045-047-050-051-200800-
NORTH CENTRAL MONTANA
CITY           SKY/WX    TMP DP  RH WIND       PRES   REMARKS
HAVRE          CLEAR     41  37  86 CALM      29.84F
LEWISTOWN      CLEAR     43  30  60 SE8       29.95S
* CHINOOK      CLEAR     46  41  83 E5        29.85S
* FORT BENTON  CLEAR     46  34  63 CALM      29.88S
* CHESTER      N/A       42  32  68 SE1        N/A
* DENTON       N/A       42  31  65 N2         N/A
* GEYSER       N/A       48  28  46 S4         N/A
* JUDITH GAP   N/A       47  35  63 SW4        N/A
* LOMA         N/A       49  39  69 SW2        N/A
$$

MTZ017>020-022>027-061-062-200800-
NORTHEAST MONTANA
CITY           SKY/WX    TMP DP  RH WIND       PRES   REMARKS
GLASGOW        CLEAR     46  37  71 E16       29.92S
GLENDIVE       PTCLDY    43  36  76 SW5       30.01S
JORDAN         CLEAR     52  37  57 E3        29.93F
SIDNEY         CLEAR     37  34  89 CALM      30.01S
WOLF POINT     PTCLDY    39  36  89 N3        29.95F
* BEAVER HILL  N/A       51  36  57 SE14G19    N/A
* CIRCLE       N/A       52  38  59 N/A        N/A
* LINDSAY DVD  N/A       47  34  61 S1         N/A
* NAVAJO       N/A       47  38  71 S11        N/A
$$

MTZ028>042-056>058-200800-
SOUTHCENTRAL AND SOUTHEAST MONTANA
CITY           SKY/WX    TMP DP  RH WIND       PRES   REMARKS
BAKER          CLEAR     43  34  71 E7        30.03S
BILLINGS       CLEAR     52  34  50 SW10      29.96F
LIVINGSTON     CLEAR     39  28  65 CALM      30.01S
MILES CITY     CLEAR     52  37  57 S13       29.97F
* LAUREL APT   CLEAR     48  30  50 N/A        N/A
* ROUNDUP APT  CLEAR     46  30  54 SW6        N/A
* ALZADA       N/A       45  39  80 E4         N/A
* HYSHAM       N/A       64  29  27 SE6G15     N/A
* LAME DEER    N/A       55  35  47 SE8        N/A
* REED POINT   N/A       36  32  85 N/A        N/A
* ROSCOE HILL  N/A       57  15  19 S6G12      N/A
$$

REGIONAL REPORTS...DAKOTAS
CITY           SKY/WX    TMP DP  RH WIND       PRES   REMARKS
WILLISTON      CLEAR     39  34  82 SW3       29.99S
DICKINSON      PTCLDY    39  34  82 S10       30.02S WCI  32
BEACH          N/A       41  37  86 SE8       30.03S
CROSBY         CLEAR     43  39  86 S10       29.98S
TIOGA          CLEAR     32  32 100 CALM      30.03S
BISMARCK       PTCLDY    37  36  96 CALM      30.04R
GRAND FORKS    CLEAR     43  37  79 W7        29.95R
FARGO          CLEAR     45  37  74 NW6       29.95R
BUFFALO SD     CLEAR     48  34  59 S6        29.99S
RAPID CITY     CLEAR     43  36  76 W5        30.09S
$$

REGIONAL REPORTS...WYOMING/IDAHO/WASHINGTON
CITY           SKY/WX    TMP DP  RH WIND       PRES   REMARKS
GILLETTE       PTCLDY    52  36  55 S17       30.07R
SHERIDAN       CLEAR     39  30  70 CALM      30.00F
CODY           CLEAR    N/A N/A N/A CALM      30.05S
YELLOWSTONE LA PTCLDY    27  21  78 CALM      30.24S
MULLAN PASS    CLEAR     50  30  46 SE7       29.94S
SAND POINT     FOG       39  39 100 CALM      29.82F VSB M1/4
SPOKANE        CLEAR     54  46  74 NE10      29.77F

$$



USA.gov is the U.S. government's official web portal to all federal, state and local government web resources and services.